Location: Cisewo
(53.3833°N, 14.9000°E)
Time: 12:08:03
(UTC+00:00)

XW-2A - Visible Passes

Search period start: 24 September 2021 00:00
Search period end: 04 October 2021 00:00
Orbit: 419 x 436 km, 97.2° (Epoch: 24 September)

Date Brightness Start Highest point End Pass type
(mag) Time Alt. Az. Time Alt. Az. Time Alt. Az.
24 Sep ? 19:13:46 35° NNE 19:13:46 35° NNE 19:15:58 10° N visible
24 Sep ? 20:46:58 11° WNW 20:46:58 11° WNW 20:47:15 10° NW visible
25 Sep ? 18:31:51 18° NE 18:31:51 18° NE 18:33:43 10° NNE visible
25 Sep ? 20:05:03 23° NW 20:05:03 23° NW 20:06:35 10° NNW visible
26 Sep ? 19:23:08 31° N 19:23:08 31° N 19:25:02 10° N visible
27 Sep ? 18:41:12 20° NE 18:41:12 20° NE 18:42:55 10° NNE visible
27 Sep ? 20:14:24 18° NW 20:14:24 18° NW 20:15:29 10° NNW visible
28 Sep ? 19:32:28 26° N 19:32:28 26° N 19:34:02 10° NNW visible
29 Sep ? 18:50:31 21° NNE 18:50:31 21° NNE 18:52:03 10° N visible
29 Sep ? 20:23:44 13° NW 20:23:44 13° NW 20:24:19 10° NW visible
30 Sep ? 18:08:34 11° NE 18:08:34 11° NE 18:09:01 10° NE visible
30 Sep ? 19:41:47 21° NNW 19:41:47 21° NNW 19:43:00 10° NNW visible
01 Oct ? 18:59:49 20° NNE 18:59:49 20° NNE 19:01:06 10° N visible
01 Oct ? 20:33:01 10° NW 20:33:01 10° NW 20:33:03 10° NW visible
02 Oct ? 18:17:50 12° NE 18:17:50 12° NE 18:18:27 10° NNE visible
02 Oct ? 19:51:03 17° NNW 19:51:03 17° NNW 19:51:54 10° NNW visible
03 Oct ? 19:09:04 18° N 19:09:04 18° N 19:10:06 10° N visible
